Theta_e
288 289 291 293 295 297 297 299 300 301 302 303 306 307 309 310 310 309 312 312 307 307 308 309 307 305 305 305 307 304 305 306 306 302 299 298 295 287 286 286 286 286 286
286 287 289 291 291 292 293 295 295 298 300 302 303 303 305 304 302 304 304 302 304 302 302 301 303 304 305 302 303 304 303 301 299 300 292 285 284 284 285 285 285 285 285
285 286 287 288 289 290 291 292 293 295 297 298 299 299 299 300 300 301 301 302 301 301 302 295 300 293 294 290 288 288 288 287 287 287 286 285 285 284 284 284 285 285 285
284 284 285 286 288 288 289 290 291 293 294 294 295 296 296 296 297 297 299 294 290 288 287 288 287 287 288 287 287 287 286 286 286 286 285 284 284 284 284 284 284 283 284
283 284 284 286 288 289 290 290 291 292 293 293 291 289 288 288 288 287 287 286 286 286 287 288 286 286 286 286 286 286 285 285 285 285 284 283 283 283 283 282 282 283 283
285 285 286 287 289 290 291 291 291 291 289 287 286 285 285 285 285 285 286 286 286 286 286 286 286 286 285 285 285 284 284 284 283 283 283 282 282 281 281 281 281 281 280
287 287 286 286 285 283 283 283 283 284 284 284 284 284 285 284 284 284 285 285 285 286 286 286 286 285 284 284 284 284 284 283 283 282 281 281 281 280 280 280 278 277 277
284 283 282 282 283 282 282 283 283 284 284 284 283 283 284 283 283 284 284 285 285 285 284 285 284 283 283 283 283 283 282 281 281 280 280 280 280 280 278 277 277 276 276
282 282 282 282 282 282 283 283 283 284 284 284 284 284 283 282 282 282 283 284 285 285 285 284 283 283 283 282 282 282 282 281 281 280 280 280 279 278 277 276 276 274 274
282 282 282 282 282 282 283 283 283 284 284 284 284 284 284 284 283 284 285 285 284 283 283 283 283 283 282 282 282 282 282 281 281 280 280 279 279 278 277 276 275 274 273
282 282 282 282 282 282 283 283 283 283 283 283 284 283 283 283 283 283 283 284 284 284 283 283 283 282 282 282 282 281 280 279 279 279 279 279 279 279 278 277 275 273 272
283 282 282 282 282 282 282 283 283 283 283 284 284 284 284 284 284 283 283 283 283 283 283 282 282 281 281 280 280 279 278 278 279 278 278 278 278 278 277 276 274 272 272
283 283 283 282 282 282 282 282 282 283 283 283 283 283 284 285 285 284 285 285 284 284 284 284 284 283 283 282 281 280 279 278 277 276 276 276 276 276 276 275 275 274 273
283 283 283 283 283 283 283 284 284 284 284 284 284 284 285 285 284 285 285 285 284 284 284 283 282 282 281 281 280 279 279 278 276 275 275 276 276 276 276 275 274 273 273
283 283 283 283 283 283 283 283 283 283 283 283 284 285 285 285 284 284 283 282 282 282 282 281 281 281 280 280 279 279 278 278 277 276 275 275 275 275 276 275 274 272 271
283 283 283 283 283 283 283 283 283 283 283 283 283 284 284 283 283 283 282 281 280 279 280 280 280 280 280 280 280 279 279 278 278 277 276 274 274 274 274 274 273 271 271
284 283 283 283 283 283 283 283 283 282 282 283 283 284 283 283 283 282 281 280 279 278 278 278 279 280 281 280 280 279 279 278 277 277 277 275 273 273 273 273 272 271 271
284 283 283 283 282 282 282 282 282 283 284 285 284 284 284 283 281 281 280 279 279 279 278 278 278 277 277 278 279 279 278 278 277 276 276 275 273 272 273 273 272 271 270
284 284 283 283 283 282 282 282 282 283 283 284 284 284 284 283 282 281 280 280 279 279 278 278 278 277 276 275 276 278 278 277 277 276 276 275 273 272 273 273 271 271 270
285 284 284 284 283 283 283 283 283 284 284 284 284 284 283 282 282 281 280 279 279 279 278 278 277 276 276 275 275 275 276 277 276 276 276 275 272 272 273 272 270 270 270
285 285 285 284 284 284 284 284 284 284 284 284 284 284 282 281 281 281 281 280 279 279 278 277 277 276 276 275 275 276 275 275 276 276 275 274 272 272 272 270 270 270 270
286 285 285 285 284 284 284 284 284 284 284 284 284 284 283 281 281 281 280 280 279 278 278 277 277 276 276 276 275 274 276 275 275 275 274 273 272 272 271 270 270 270 271
286 286 285 285 285 284 284 284 284 284 284 283 283 283 282 282 281 280 280 279 279 278 278 277 277 276 276 276 274 273 276 276 275 274 274 272 272 271 270 270 270 272 272
286 286 286 285 285 285 285 284 284 284 284 283 283 282 282 281 281 280 280 279 278 278 277 277 276 276 278 276 274 273 276 275 274 274 272 272 271 270 270 271 273 273 272
287 287 286 286 286 285 285 284 284 283 283 283 283 282 281 281 280 279 279 278 278 277 277 276 275 274 275 275 275 276 275 274 274 272 272 271 270 270 271 273 273 273 273
288 287 287 286 285 285 284 283 283 283 283 282 281 281 280 280 279 279 278 278 277 276 276 276 277 277 276 276 276 276 275 274 273 273 271 271 271 273 273 273 273 272 272
Wind_Speed
4 1 1 4 6 9 11 11 12 12 11 10 10 12 13 14 14 18 20 19 23 21 20 18 19 17 17 15 12 13 11 9 11 16 17 15 8 7 9 11 14 16 18
7 4 3 3 5 8 10 11 13 14 14 15 15 16 18 20 20 21 23 27 26 26 25 20 23 19 16 15 13 9 5 5 7 10 11 8 7 8 11 13 16 18 18
7 7 8 9 10 12 13 14 16 18 21 24 26 29 31 31 33 32 28 26 26 23 23 20 20 15 18 16 14 14 11 9 8 8 6 5 6 10 13 15 18 20 20
10 13 17 19 21 24 26 27 29 30 32 33 35 35 33 32 29 28 28 27 27 26 24 24 24 19 19 14 11 11 10 8 7 5 2 3 7 11 15 18 20 24 25
17 21 25 28 31 33 34 36 36 35 35 35 35 35 34 33 30 27 26 24 24 23 23 22 18 18 16 13 10 8 6 6 4 3 3 6 11 14 17 20 24 26 28
24 25 26 28 30 32 33 33 33 33 35 34 32 32 32 30 26 25 23 21 20 20 20 19 16 14 11 10 7 6 6 7 5 5 7 10 12 16 19 22 26 30 33
27 27 29 30 30 29 31 31 32 31 30 30 30 28 28 27 22 20 19 18 17 17 16 15 13 10 8 7 5 4 5 5 6 7 9 11 15 17 21 25 27 29 32
25 24 26 26 27 28 28 28 28 27 25 25 24 24 24 23 19 17 15 15 14 14 12 11 9 7 6 7 7 7 7 7 8 10 12 14 17 20 22 25 28 31 35
20 21 21 22 22 23 23 23 22 21 20 19 19 18 17 17 15 14 12 12 12 11 9 7 7 5 5 4 6 6 8 9 10 11 13 16 18 20 22 26 27 30 36
17 18 18 18 18 18 18 18 18 17 16 16 15 14 14 13 12 10 9 8 7 7 6 5 6 7 7 9 11 11 12 14 15 15 16 18 20 21 22 25 27 29 30
15 15 15 14 14 14 14 14 14 13 12 12 11 11 9 8 7 5 4 3 4 4 5 5 6 7 8 10 12 13 15 17 18 20 22 22 23 24 25 26 27 29 31
14 13 12 11 11 11 10 10 9 9 8 7 7 6 5 4 3 3 3 2 2 4 5 7 8 10 11 13 15 17 18 20 21 23 24 24 25 26 27 29 29 31 31
12 11 10 9 9 9 9 8 7 6 5 5 4 3 1 1 1 2 4 5 6 6 6 7 9 11 14 15 16 18 20 21 22 24 26 27 27 29 31 32 32 34 36
14 13 12 11 10 9 8 8 8 6 5 4 3 4 4 4 4 5 7 7 6 7 8 11 13 15 17 19 20 21 23 24 25 27 28 29 30 32 33 34 36 36 40
14 13 12 11 11 11 10 10 9 9 9 8 8 8 9 9 9 10 11 12 13 14 13 15 16 17 19 21 23 24 25 27 28 30 31 32 33 35 36 35 37 39 42
18 17 16 15 15 14 14 14 13 13 12 12 12 12 12 12 13 14 16 16 17 19 22 20 21 21 22 24 26 28 29 29 30 32 33 35 36 37 39 38 38 40 43
20 18 18 18 18 17 17 17 17 17 17 17 16 16 16 16 18 19 21 22 22 25 26 26 26 25 26 28 30 32 33 33 34 34 35 36 37 39 41 42 41 42 44
21 21 21 21 21 21 22 22 22 22 22 21 20 21 21 21 22 23 25 28 30 30 31 31 31 31 31 31 32 35 36 37 37 37 37 38 38 40 43 43 42 43 44
25 25 24 24 25 25 25 26 26 27 27 27 26 26 25 26 28 29 30 34 35 36 37 37 35 35 35 36 37 38 39 39 39 39 39 39 40 42 44 44 44 44 45
29 28 28 28 29 29 29 30 31 31 32 32 33 32 30 31 34 34 34 37 39 40 40 41 40 40 40 40 40 41 43 42 42 42 42 41 42 43 46 45 45 46 48
31 31 31 32 33 33 34 35 35 36 37 38 38 37 36 37 38 40 40 42 42 43 43 43 43 43 43 43 43 43 44 45 43 43 42 42 44 46 46 45 46 47 50
34 34 35 36 36 38 38 38 39 40 42 42 42 42 42 43 44 44 44 44 45 45 45 46 46 45 44 43 45 44 45 44 44 44 43 43 45 46 46 46 47 49 49
37 38 38 39 39 40 41 42 43 44 45 46 46 46 46 47 48 48 48 47 46 47 46 46 47 47 45 45 44 42 45 43 42 42 42 44 45 46 45 47 48 48 47
39 41 41 42 42 42 43 44 44 45 46 46 48 48 48 48 49 48 47 47 46 45 44 44 44 43 43 41 39 40 43 38 40 41 42 44 45 45 45 47 46 46 47
38 40 43 44 44 45 45 45 45 45 46 47 48 48 47 47 46 45 44 43 41 41 40 38 38 37 37 36 37 39 35 37 38 40 41 42 44 45 45 44 44 45 44
34 36 38 40 41 42 43 43 44 45 45 44 43 43 42 41 40 40 39 38 37 36 35 35 36 34 32 33 31 29 32 35 38 37 38 41 44 44 43 46 46 46 48
Wind_Direction
14 11 236 198 189 192 193 186 187 182 177 169 165 170 177 181 179 175 169 172 152 140 142 142 135 133 129 132 147 169 182 175 174 188 203 210 228 236 249 262 271 279 283
32 50 96 137 151 162 163 161 154 151 144 142 139 137 138 131 125 131 131 125 122 110 111 111 109 106 109 112 122 135 143 146 162 163 169 190 228 259 270 277 284 288 292
66 82 99 110 118 121 124 130 132 133 133 130 129 126 124 123 125 123 121 115 110 109 113 104 89 97 99 98 108 117 125 130 129 131 155 212 258 278 286 294 298 298 304
100 111 113 113 113 111 110 113 115 116 116 116 115 115 111 108 107 107 107 106 112 115 115 107 110 114 106 108 110 107 109 112 108 110 144 276 288 294 305 310 309 313 313
109 112 112 115 115 114 114 113 112 112 111 106 103 99 98 98 101 104 106 109 108 107 102 100 102 92 95 96 91 90 90 77 63 30 342 316 322 319 316 315 316 315 312
107 104 106 109 110 108 106 103 99 99 101 108 110 111 112 107 106 106 108 108 106 102 101 101 98 94 95 92 83 70 55 43 21 352 331 324 323 319 317 319 319 322 322
106 108 108 107 109 110 109 110 110 110 111 111 110 110 107 105 105 105 105 106 105 101 98 98 95 89 79 70 56 35 23 1 337 331 328 326 321 321 320 325 322 317 313
120 119 120 121 120 120 118 115 114 114 115 113 111 109 110 108 109 108 108 105 101 94 90 82 79 72 52 30 13 0 346 337 333 332 330 326 322 325 322 316 315 312 312
111 113 115 116 118 117 116 116 116 116 115 114 111 108 105 103 99 92 85 80 75 73 69 64 51 36 21 355 331 320 320 321 319 318 322 325 323 321 315 311 315 310 311
123 121 123 123 122 121 121 121 120 120 119 115 114 111 107 100 93 85 77 68 62 57 49 30 6 353 348 331 318 320 321 320 320 316 317 320 319 317 313 312 314 309 310
133 131 131 131 129 126 125 123 119 116 111 106 99 96 92 94 98 98 96 81 58 38 18 3 346 334 322 310 313 320 322 322 323 322 322 322 320 318 318 316 315 309 304
149 146 146 147 146 142 133 126 125 125 123 120 119 121 120 113 100 70 45 4 353 352 351 342 337 328 321 324 324 321 318 316 317 316 316 319 319 319 317 315 313 308 306
168 167 168 169 167 164 162 164 162 159 158 161 162 150 122 85 9 349 343 340 336 326 319 316 313 316 322 322 320 316 313 313 312 312 315 318 319 320 319 316 313 313 311
188 189 191 194 197 200 202 204 206 209 217 230 243 255 269 276 278 275 264 259 271 303 322 329 328 326 325 323 321 319 318 316 314 313 313 316 318 319 318 317 314 315 311
207 211 214 218 222 225 229 234 238 241 244 250 256 261 266 270 277 287 302 315 317 314 310 313 316 317 318 320 320 320 318 317 316 315 314 314 315 317 318 318 315 313 309
217 220 223 227 231 236 240 243 249 254 255 259 261 264 269 277 289 293 292 293 294 294 297 303 309 313 315 316 317 318 317 316 315 314 313 312 312 314 316 315 313 311 310
226 230 235 240 245 250 256 259 261 260 261 264 268 272 276 278 281 285 289 289 285 286 289 293 297 304 311 315 316 316 316 315 313 312 310 310 311 313 315 314 314 312 311
233 238 243 247 251 255 258 261 264 268 271 272 275 279 283 285 286 287 287 286 285 285 286 288 293 296 300 306 312 313 313 313 312 311 309 309 310 311 312 312 311 311 311
241 244 248 252 256 259 263 266 269 272 276 279 279 279 282 283 282 280 280 280 283 285 287 290 293 294 295 297 302 308 310 311 311 309 308 307 308 310 310 311 311 312 311
245 248 252 255 259 262 265 268 271 275 278 279 280 281 281 281 280 281 280 279 281 283 286 287 290 291 292 293 297 300 304 308 309 308 308 308 309 309 309 309 310 310 310
252 254 258 259 261 265 267 269 273 275 277 279 281 283 284 282 282 282 283 283 284 285 286 287 288 289 289 291 292 297 298 300 306 307 306 306 307 308 308 308 309 310 310
255 258 260 262 264 265 268 271 272 274 276 278 281 283 285 284 284 285 286 287 288 289 289 289 288 288 288 290 290 290 296 296 303 305 304 305 307 307 307 308 309 309 309
254 256 258 261 263 266 268 270 272 275 277 279 282 283 284 285 287 289 290 291 291 291 291 289 288 287 287 289 286 284 292 295 301 302 302 304 304 304 305 305 307 307 308
258 260 261 263 265 267 269 271 274 276 278 281 283 284 287 289 290 291 292 292 292 291 290 289 287 286 289 289 287 285 293 297 300 300 302 303 302 303 304 305 308 310 310
258 260 263 264 266 269 271 273 275 278 280 282 285 288 290 290 291 293 293 293 293 293 291 290 288 288 288 288 286 291 295 298 298 302 303 301 301 304 305 307 309 308 308
258 259 262 265 267 269 271 275 277 280 282 286 287 288 290 292 293 293 294 294 293 293 293 292 292 292 294 295 295 295 297 299 302 303 301 302 306 308 311 313 313 311 309